Overview Statistics Trail Chart Weather Telemetry Raw packets
 

This is the latest recevied weather packets stored in our database for station/object SA7AHC. If no packets are shown the sender has not sent any weather packets the latest 10 day(s).

<< 11 12 13 14 15 16 17 >>
Time Temp. Humidity Pressure Rain* Wind** Luminosity Snow
1788450302 13.89° C 98% 1008.1 hPa 0.51 mm - 40 W/m² -
1788449701 13.89° C 98% 1008.2 hPa 0.51 mm - 44 W/m² -
1788449101 13.89° C 97% 1008.2 hPa 0.25 mm - 25 W/m² -
1788448501 13.89° C 98% 1008.5 hPa 0 mm - 26 W/m² -
1788447901 14.44° C 98% 1008.6 hPa 0.51 mm - 21 W/m² -
1788447301 14.44° C 97% 1008.6 hPa 0.51 mm - 25 W/m² -
1788446702 14.44° C 97% 1008.8 hPa 0.76 mm - 46 W/m² -
1788446101 14.44° C 97% 1009 hPa 0.76 mm - 77 W/m² -
1788445501 14.44° C 97% 1009 hPa 1.02 mm - 98 W/m² -
1788444900 13.89° C 97% 1009 hPa 1.52 mm - 146 W/m² -
1788444306 13.89° C 97% 1009.1 hPa 1.52 mm - 51 W/m² -
1788443689 14.44° C 97% 1009.5 hPa 1.52 mm - 42 W/m² -
1788443089 14.44° C 97% 1009.5 hPa 1.27 mm - 58 W/m² -
1788442479 14.44° C 97% 1009.6 hPa 1.27 mm - 70 W/m² -
1788441877 13.89° C 96% 1010 hPa 1.27 mm - 113 W/m² -
1788441274 14.44° C 97% 1010 hPa 0.76 mm - 51 W/m² -
1788440673 14.44° C 97% 1010.1 hPa 0.76 mm - 62 W/m² -
1788440069 13.89° C 97% 1010.4 hPa 0.51 mm - 120 W/m² -
1788439474 13.89° C 96% 1010.4 hPa 0.51 mm - 86 W/m² -
1788438870 13.89° C 96% 1010.6 hPa 0.51 mm - 95 W/m² -
1788438269 13.89° C 96% 1010.7 hPa 0.51 mm - 86 W/m² -
1788437669 13.89° C 95% 1010.7 hPa 0.25 mm - 67 W/m² -
1788437069 13.89° C 95% 1010.9 hPa 0.25 mm - 109 W/m² -
1788436490 13.89° C 95% 1011.1 hPa 0.25 mm - 118 W/m² -
1788435870 13.89° C 95% 1011.1 hPa 0.25 mm - 86 W/m² -

* Rain latest hour (hover to see other rain measurements)
** Current wind speed in m/s (hover to see current wind gust speed)